TimeCDT,TemperatureF,Dew PointF,Humidity,Sea Level PressureIn,VisibilityMPH,Wind Direction,Wind SpeedMPH,Gust SpeedMPH,PrecipitationIn,Events,Conditions,WindDirDegrees,DateUTC
12:53 AM,75.9,72.0,87,30.00,10.0,Calm,Calm,-,N/A,,Clear,0,2013-09-12 05:53:00
1:53 AM,77.0,72.0,84,29.99,10.0,Calm,Calm,-,N/A,,Clear,0,2013-09-12 06:53:00
2:53 AM,75.9,72.0,87,29.98,9.0,Calm,Calm,-,N/A,,Clear,0,2013-09-12 07:53:00
3:53 AM,75.0,72.0,90,29.96,9.0,Calm,Calm,-,N/A,,Clear,0,2013-09-12 08:53:00
4:53 AM,75.0,72.0,90,29.96,8.0,Calm,Calm,-,N/A,,Clear,0,2013-09-12 09:53:00
5:53 AM,75.0,72.0,90,29.96,8.0,NE,3.5,-,N/A,,Scattered Clouds,40,2013-09-12 10:53:00
6:09 AM,75.2,71.6,89,30.01,8.0,NNE,3.5,-,N/A,,Mostly Cloudy,30,2013-09-12 11:09:00
6:19 AM,75.2,71.6,89,30.01,8.0,NE,3.5,-,N/A,,Mostly Cloudy,40,2013-09-12 11:19:00
6:38 AM,75.2,73.4,94,30.01,8.0,NE,4.6,-,N/A,,Overcast,50,2013-09-12 11:38:00
6:53 AM,75.9,73.0,91,29.98,7.0,ENE,6.9,-,N/A,,Mostly Cloudy,60,2013-09-12 11:53:00
7:02 AM,75.2,73.4,94,30.01,7.0,ENE,6.9,-,N/A,,Overcast,60,2013-09-12 12:02:00
7:53 AM,77.0,73.0,88,29.99,5.0,ENE,6.9,-,N/A,,Overcast,60,2013-09-12 12:53:00
8:53 AM,79.0,73.9,84,30.01,8.0,ENE,11.5,-,N/A,,Overcast,60,2013-09-12 13:53:00
9:22 AM,80.6,73.4,79,30.04,8.0,ENE,6.9,-,N/A,,Mostly Cloudy,60,2013-09-12 14:22:00
9:40 AM,82.4,73.4,74,30.05,9.0,NE,8.1,-,N/A,,Mostly Cloudy,50,2013-09-12 14:40:00
9:53 AM,82.0,73.9,76,30.01,10.0,East,5.8,-,N/A,,Overcast,80,2013-09-12 14:53:00
10:11 AM,82.4,73.4,74,30.05,10.0,ENE,6.9,-,N/A,,Mostly Cloudy,60,2013-09-12 15:11:00
10:19 AM,82.4,73.4,74,30.05,10.0,East,10.4,-,N/A,,Scattered Clouds,80,2013-09-12 15:19:00
10:53 AM,84.0,72.0,67,30.02,10.0,East,6.9,-,N/A,,Mostly Cloudy,80,2013-09-12 15:53:00
11:53 AM,86.0,70.0,59,30.01,10.0,ESE,6.9,-,N/A,,Mostly Cloudy,120,2013-09-12 16:53:00
12:53 PM,90.0,68.0,48,29.99,10.0,ENE,8.1,-,N/A,,Mostly Cloudy,60,2013-09-12 17:53:00
1:53 PM,91.9,66.9,44,29.96,10.0,East,8.1,-,N/A,,Mostly Cloudy,90,2013-09-12 18:53:00
2:53 PM,95.0,64.9,37,29.92,10.0,East,10.4,-,N/A,,Partly Cloudy,100,2013-09-12 19:53:00
3:53 PM,96.1,62.1,32,29.90,10.0,East,10.4,16.1,N/A,,Scattered Clouds,100,2013-09-12 20:53:00
4:53 PM,96.1,60.1,30,29.87,10.0,ENE,9.2,17.3,N/A,,Clear,70,2013-09-12 21:53:00
5:53 PM,96.1,57.0,27,29.86,10.0,East,6.9,-,N/A,,Clear,90,2013-09-12 22:53:00
6:53 PM,93.9,61.0,33,29.86,10.0,ESE,5.8,-,N/A,,Clear,110,2013-09-12 23:53:00
7:53 PM,88.0,66.0,48,29.88,10.0,ESE,6.9,-,N/A,,Clear,120,2013-09-13 00:53:00
8:53 PM,84.9,66.9,55,29.90,10.0,SE,3.5,-,N/A,,Clear,130,2013-09-13 01:53:00
9:53 PM,84.9,66.9,55,29.91,10.0,Calm,Calm,-,N/A,,Overcast,0,2013-09-13 02:53:00
10:53 PM,82.9,68.0,60,29.93,10.0,SSE,3.5,-,N/A,,Mostly Cloudy,160,2013-09-13 03:53:00
11:53 PM,81.0,70.0,69,29.94,10.0,SSE,3.5,-,N/A,,Clear,150,2013-09-13 04:53:00